TimeEDT,TemperatureF,Dew PointF,Humidity,Sea Level PressureIn,VisibilityMPH,Wind Direction,Wind SpeedMPH,Gust SpeedMPH,PrecipitationIn,Events,Conditions,WindDirDegrees,DateUTC
12:53 AM,66.9,61.0,81,30.13,10.0,East,6.9,-,N/A,,Clear,80,2013-04-24 04:53:00
1:53 AM,64.0,61.0,90,30.12,10.0,East,6.9,-,N/A,,Clear,80,2013-04-24 05:53:00
2:53 AM,61.0,60.1,97,30.10,10.0,ENE,4.6,-,N/A,,Clear,60,2013-04-24 06:53:00
3:53 AM,60.1,59.0,96,30.10,6.0,NE,4.6,-,N/A,,Clear,40,2013-04-24 07:53:00
4:36 AM,57.2,57.2,100,30.10,1.8,NE,4.6,-,N/A,,Clear,50,2013-04-24 08:36:00
4:53 AM,57.9,57.0,97,30.10,2.5,ENE,4.6,-,N/A,,Clear,60,2013-04-24 08:53:00
5:00 AM,57.2,57.2,100,30.10,4.0,ENE,4.6,-,N/A,,Clear,60,2013-04-24 09:00:00
6:12 AM,57.2,57.2,100,30.11,1.8,NE,3.5,-,N/A,,Partly Cloudy,50,2013-04-24 10:12:00
6:16 AM,57.2,57.2,100,30.11,0.8,NE,3.5,-,N/A,,Mist,50,2013-04-24 10:16:00
6:50 AM,55.4,55.4,100,30.12,6.0,ENE,4.6,-,N/A,,Clear,60,2013-04-24 10:50:00
6:51 AM,55.9,55.9,100,30.13,6.0,ENE,4.6,-,N/A,,Clear,60,2013-04-24 10:51:00
7:53 AM,61.0,60.1,97,30.14,8.0,ENE,4.6,-,N/A,,Clear,60,2013-04-24 11:53:00
8:53 AM,68.0,63.0,84,30.16,10.0,ENE,6.9,-,N/A,,Clear,70,2013-04-24 12:53:00
9:53 AM,75.0,62.1,64,30.17,10.0,ESE,6.9,-,N/A,,Clear,120,2013-04-24 13:53:00
10:53 AM,79.0,60.1,52,30.16,10.0,ESE,8.1,17.3,N/A,,Clear,120,2013-04-24 14:53:00
11:53 AM,80.1,59.0,48,30.15,10.0,SE,3.5,-,N/A,,Clear,140,2013-04-24 15:53:00
12:53 PM,82.0,60.1,47,30.13,10.0,Calm,Calm,-,0.01,,Clear,0,2013-04-24 16:53:00
1:53 PM,84.0,59.0,43,30.12,10.0,Variable,3.5,-,N/A,,Clear,0,2013-04-24 17:53:00
2:53 PM,86.0,57.0,37,30.10,10.0,South,8.1,-,N/A,,Partly Cloudy,190,2013-04-24 18:53:00
3:53 PM,87.1,60.1,40,30.08,10.0,West,8.1,-,N/A,,Scattered Clouds,270,2013-04-24 19:53:00
4:53 PM,88.0,60.1,39,30.07,10.0,West,8.1,-,N/A,,Scattered Clouds,280,2013-04-24 20:53:00
5:53 PM,84.0,64.9,53,30.09,10.0,West,13.8,-,N/A,,Partly Cloudy,280,2013-04-24 21:53:00
6:53 PM,81.0,64.0,56,30.09,10.0,WNW,10.4,-,N/A,,Clear,290,2013-04-24 22:53:00
7:53 PM,78.1,63.0,60,30.10,10.0,WNW,6.9,-,N/A,,Clear,290,2013-04-24 23:53:00
8:53 PM,75.9,63.0,64,30.12,10.0,NW,6.9,-,N/A,,Clear,310,2013-04-25 00:53:00
9:53 PM,73.0,64.9,76,30.15,10.0,NNW,4.6,-,N/A,,Clear,340,2013-04-25 01:53:00
10:53 PM,73.0,64.9,76,30.16,10.0,North,8.1,-,N/A,,Clear,10,2013-04-25 02:53:00
11:53 PM,70.0,64.9,84,30.15,10.0,ESE,5.8,-,N/A,,Clear,110,2013-04-25 03:53:00